FENGYUN 1C DEB, 31341

Orbit data source: Space-Track

FENGYUN 1C DEB, 31341 is space debris in SSO originally from a launch on Mon, 10 May 1999 UTC launched from the Taiyaun Space Center, China (TSC). Fengyun 1C debris stems from the Chinese weather satellite Fengyun-1C, which was intentionally destroyed by a Chinese anti-satellite missile in 2007. This event dramatically increased the amount of space debris, with thousands of trackable fragments posing hazards to satellites and human spaceflight. The Fengyun 1C debris cloud has become a focal point in discussions about space sustainability and the need for international regulations to prevent the creation of new debris.

Loading next visibility...
Identifier
31341, 1999-025BQV
Orbit
SSO
Country
Flag of CNCN / PRC
Related business
Manufacturer
Unknown
Mission
Spacecraft
Bus & Motor
Unknown
Mass
Unknown
Launch date (UTC)
1999-05-10 (27 years ago)
Launch vehicle
Unknown
Launch site
Taiyaun Space Center, China (TSC)
Object type
Payload
Rocket body
Debris
Shape & HBR
Unknown shape, 0.1 m
Radar Cross Section
Small (<0.1 m²)

Expand to show TLE details & history
Last TLE update: 1 day ago

TLE from 1 day ago
0 FENGYUN 1C DEB
1 31341U 99025BQV 26236.19513944  .00003063  00000-0  70110-3 0  9996
2 31341  99.5361 318.1103 0050054 310.6831  78.1128 14.55790380 13182
Epoch: 2026-08-24T04:41Z
TLE epoch observation values (Epoch: 2026-08-24T04:41:00.047Z)
Latitude
28.96231°
Longitude
-89.9262°
Altitude
703.256 km
Speed
7.511 km/s
True Right ascension
20h 51m 13s
True Declination
28° 48' 57"
Sunlit
Object was in full shadow at epoch
Visualization orbit readout
Latitude
Unknown
Longitude
Unknown
Altitude
Unknown
Speed
Unknown
Apparent Right ascension
Unknown
Apparent Declination
Unknown
Sunlit
N/A
Visualization observer readout
Local Sidereal Time
04:09:27
Azimuth
Unknown
Elevation
Unknown
Doppler factor
Unknown
Orbital elements
Apogee altitude
739.401 km
Perigee altitude
668.503 km
Semi-major axis
7,082.089 km
Eccentricity
0.00501
Inclination
99.5361°
RAAN
318.1103°
Arg. of periapsis
310.6831°
True anomaly
78.67479°
Mean anomaly
78.1128°
Eccentric anomaly
78.39372°
Mean motion
3.64167 °/min
Orbital period
98.86 mins
BSTAR
0.0007011
Loading maneuver chart data...
Computing Atmospheric mass density...

Documentation

Showing up to 5 results
|